Starlink 5988

operational
NORAD ID: 56320 Int'l Des: 2023-058 Owner: SPXS Country: US Constellation: starlink
LEOCIRCULARRETROGRADESSO

About Starlink 5988

Description loading...

Live Position

Loading 3D Globe...

Upcoming Passes

Altitude History

Altitude vs Time

uPlot chart will show altitude changes over time

Two-Line Element Set

1 56320U 23058D 25304.23841179 -.00000175 00000-0 -90801-5 0 9991
2 56320 97.6015 303.3939 0001579 163.3334 196.7942 15.01258741138364
Epoch: Oct 31, 2025 • Age: 7 hours

Current Status

Altitude 573.7 km
Velocity 7.58 km/s
Sub-Earth Point 61.49°N, 63.51°E
Launch Date Apr 27, 2023
Age 2.5 years
Type internet

Technical Details

Classification Payload
Mass 300.00 kg
Dry Mass 260.00 kg
Total Mass 300.00 kg
Length 0.20 m
Diameter 2.80 m
Span 9.00 m
Shape Box + pan
Manufacturer SPXS
Bus Type Starlink
Phase Status In Orbit
Owner/State SPXS/US

Large Constellations

Loading constellations...